STARLINK-5425, 54791

Orbit data source: Space-Track

STARLINK-5425, 54791 is a payload satellite owned by SpaceX/Seattle (US) in LEO that was launched on Sat, 17 Dec 2022 UTC via an FALCON 9 launch vehicle from the Air Force Eastern Test Range (AFETR). Payload-class satellites include a variety of spacecraft equipped with specific instruments for various scientific and technological missions. These include communications satellites like Starlink; space stations such as the ISS; scientific satellites like the Hubble; Earth observation satellites from companies like Planet Labs, Umbra, and HawkEye 360; GPS; miniature CubeSats for education and research; and military/defense satellites.

Loading next visibility...
Identifier
54791, 2022-175AK
Orbit
LEO
Country
Flag of USUS
Related business
Manufacturer
SpaceX/Seattle
Mission
Operational Commercial Communications
Bus & Motor
STARLINK, Unknown motor
Mass
305 kg wet, ~290 kg dry
Launch date (UTC)
2022-12-17 (4 years ago)
Launch vehicle
FALCON 9
Launch site
Air Force Eastern Test Range (AFETR)
Object type
Payload
Rocket body
Debris
Shape & HBR
Box + 1 Pan, 10.1 m
Radar Cross Section
13.562 m², Large (>1 m²)

Expand to show TLE details & history
Last TLE update: 3 days ago

TLE from 3 days ago
0 STARLINK-5425
1 54791U 22175AK  26170.65539131 -.00000397  00000-0 -68735-5 0  9997
2 54791  53.1615 291.2116 0001078 102.8045 257.3067 15.08836144195529
Epoch: 2026-06-19T15:43Z
TLE epoch observation values (Epoch: 2026-06-19T15:43:45.809Z)
Latitude
-0°
Longitude
147.38948°
Altitude
540.811 km
Speed
7.593 km/s
True Right ascension
19h 24m 50s
True Declination
0° 00' 00"
Sunlit
Object was in full shadow at epoch
Visualization orbit readout
Latitude
Unknown
Longitude
Unknown
Altitude
Unknown
Speed
Unknown
Apparent Right ascension
Unknown
Apparent Declination
Unknown
Sunlit
N/A
Visualization observer readout
Local Sidereal Time
21:43:35
Azimuth
Unknown
Elevation
Unknown
Doppler factor
Unknown
Orbital elements
Apogee altitude
540.755 km
Perigee altitude
539.263 km
Semi-major axis
6,918.146 km
Eccentricity
0.00011
Inclination
53.1615°
RAAN
291.2116°
Arg. of periapsis
102.8045°
True anomaly
257.29465°
Mean anomaly
257.3067°
Eccentric anomaly
257.30067°
Mean motion
3.77189 °/min
Orbital period
95.44 mins
BSTAR
-0.0000068735
Loading maneuver chart data...
Computing Atmospheric mass density...
Loading historical data...
Loading historical data...
Loading historical data...
Loading historical data...
Loading historical data...
Loading historical data...
Loading historical data...

Documentation

Showing up to 5 results
|